582  
ASUS44 KSHV 221810  
RWRSHV  
 
WEATHER ROUNDUP FOR THE FOUR STATE AREA  
NATIONAL WEATHER SERVICE SHREVEPORT LA  
1200 PM CST WED NOV 22 2017  
 
NOTE: "FAIR" INDICATES FEW OR NO CLOUDS BELOW 12000 FEET  
WITH NO SIGNIFICANT WEATHER AND/OR S TO VISIBILITY
.  
 
!LAZ001-LAZ014-TXZ097-221900  
SHREVEPORT...MONROE...TEXARKANA RADIOS  
 
CITY SKY/WX TMP DP RH WIND PRES REMARKS
 
SHREVEPORT SUNNY 57 31 37 NE12 30.27F  
MONROE SUNNY 56 30 37 N12G20 30.27F  
NATCHITOCHES SUNNY 58 37 46 N8 30.24F  
TEXARKANA SUNNY 53 26 35 NE9 30.31F  

 
 
!LAZ001-LAZ014-TXZ097-221900  
OTHER LOCATIONS...  
 
CITY SKY/WX TMP DP RH WIND PRES REMARKS
 
DOWNTOWN SHV SUNNY 57 31 37 N8 30.28F  
BOSSIER CITY SUNNY 58 30 35 N8 30.27F  
RUSTON SUNNY 55 30 38 N10G17 30.30F  
LITTLE ROCK SUNNY 46 21 37 NE9 30.35F  
EL DORADO SUNNY 52 29 41 N8 30.30F  
JACKSON MOSUNNY 59 38 45 NE14 30.18F  
NEW ORLEANS CLOUDY 63 44 50 N13 30.11F  
HOUSTON MOSUNNY 66 50 56 N10 30.22F  
LUFKIN SUNNY 60 42 51 N7 30.25F  
TYLER SUNNY 56 29 35 NE7 30.30F  
DAL FT WORTH PTSUNNY 51 20 29 N13 30.35F  

 
 
!TXZ136-TXZ165-221900  
TYLER...LUFKIN RADIOS  
 
CITY SKY/WX TMP DP RH WIND PRES REMARKS
 
TYLER SUNNY 56 29 35 NE7 30.30F  
GILMER CLEAR 55 33 44 N3 30.31F  
LONGVIEW SUNNY 57 36 45 N7 30.28F  
LUFKIN SUNNY 60 42 51 N7 30.25F  

 
 
!TXZ136-TXZ165-221900  
OTHER LOCATIONS...  
 
CITY SKY/WX TMP DP RH WIND PRES REMARKS
 
NACOGDOCHES SUNNY 59 41 51 VRB5 30.26F  
BEAUMONT SUNNY 65 51 60 N13 30.18F  
HOUSTON MOSUNNY 66 50 56 N10 30.22F  
COLLEGE STN SUNNY 60 36 40 N14 30.29F  
AUSTIN MOSUNNY 60 34 37 N14 30.30F  
DAL FT WORTH PTSUNNY 51 20 29 N13 30.35F  
TEXARKANA SUNNY 53 26 35 NE9 30.31F  
SHREVEPORT SUNNY 57 31 37 NE12 30.27F  
FORT POLK SUNNY 59 43 55 N9G16 30.20F  
LAKE CHARLES SUNNY 64 49 57 N13 30.18F  

 
 
 
CLICK HERE TO GO TO PREVIOUS BULLETINS.

The Nexlab LA Page
The Nexlab TX Page
The Nexlab AR Page
The Nexlab OK Page Main Text Page